Location: Poughquag
(41.6090°N, 73.6820°W)
Time: 02:06:24
(UTC-04:00)

Vanguard 3 - All Passes

Search period start: 15 October 2019 00:00
Search period end: 25 October 2019 00:00
Orbit: 508 x 3262 km, 33.3° (Epoch: 13 October)

Date Brightness Start Highest point End Pass type
(mag) Time Alt. Az. Time Alt. Az. Time Alt. Az.
15 Oct - 02:26:00 10° SW 02:29:26 25° SSE 02:34:04 10° ESE visible
15 Oct - 04:35:37 10° WSW 04:40:29 40° S 04:48:28 10° ESE visible
15 Oct - 06:46:20 10° WSW 06:52:38 31° SSW 07:02:37 10° SE daylight
15 Oct - 09:00:19 10° WSW 09:05:48 15° SSW 09:12:39 10° S daylight
16 Oct - 01:14:06 10° S 01:16:13 14° SSE 01:18:36 10° ESE night (unlit)
16 Oct - 03:22:49 10° WSW 03:26:50 35° S 03:32:49 10° ESE visible
16 Oct - 05:33:03 10° WSW 05:38:22 34° S 05:46:58 10° SE visible
16 Oct - 07:45:01 10° WSW 07:50:57 20° SSW 07:59:14 10° SSE daylight
17 Oct - 02:10:12 10° SW 02:13:27 25° SSE 02:17:38 10° ESE night (unlit)
17 Oct - 04:20:02 10° WSW 04:24:28 35° S 04:31:23 10° ESE visible
17 Oct - 06:31:00 10° WSW 06:36:26 25° SSW 06:44:35 10° SSE visible
17 Oct - 08:48:06 10° SW 08:49:22 10° SSW 08:50:44 10° SSW daylight
18 Oct - 00:57:53 10° SSW 01:00:12 16° SSE 01:02:42 10° ESE night (unlit)
18 Oct - 03:07:11 10° WSW 03:10:53 32° S 03:16:07 10° ESE visible
18 Oct - 05:17:37 10° WSW 05:22:18 28° S 05:29:28 10° SE visible
18 Oct - 07:30:23 10° SW 07:34:41 15° SSW 07:40:10 10° S daylight
19 Oct - 01:54:22 10° SW 01:57:31 25° SSE 02:01:19 10° ESE night (unlit)
19 Oct - 04:04:31 10° WSW 04:08:30 30° S 04:14:21 10° SE visible
19 Oct - 06:15:55 10° WSW 06:20:19 19° SSW 06:26:25 10° SSE visible
20 Oct - 00:41:41 10° SSW 00:44:14 18° SSE 00:46:52 10° ESE night (unlit)
20 Oct - 02:51:32 10° WSW 02:54:58 29° S 02:59:32 10° ESE visible
20 Oct - 05:02:17 10° WSW 05:06:18 22° SSW 05:11:58 10° SE visible
20 Oct - 23:29:28 10° S 23:30:52 12° SSE 23:32:13 10° SE night (unlit)
21 Oct - 01:38:32 10° SW 01:41:37 25° S 01:45:07 10° ESE night (unlit)
21 Oct - 03:49:02 10° WSW 03:52:33 25° S 03:57:23 10° SE visible
21 Oct - 06:01:18 10° SW 06:04:15 13° SSW 06:07:52 10° S visible
22 Oct - 00:25:28 10° SW 00:28:18 20° S 00:31:05 10° ESE night (unlit)
22 Oct - 02:35:54 10° WSW 02:39:05 25° S 02:43:01 10° SE night (unlit)
22 Oct - 04:47:11 10° SW 04:50:19 17° SSW 04:54:22 10° SSE visible
22 Oct - 23:12:22 10° SSW 23:14:55 15° SSE 23:17:10 10° SE night (unlit)
23 Oct - 01:22:39 10° SW 01:25:43 25° S 01:29:00 10° ESE night (unlit)
23 Oct - 03:33:39 10° WSW 03:36:39 20° S 03:40:26 10° SE visible
23 Oct - 21:59:39 10° S 22:01:20 11° SSE 22:02:51 10° SE night (unlit)
24 Oct - 00:09:11 10° SW 00:12:24 22° S 00:15:19 10° ESE night (unlit)
24 Oct - 02:20:15 10° WSW 02:23:12 22° S 02:26:34 10° SE night (unlit)
24 Oct - 04:32:37 10° SW 04:34:21 12° SSW 04:36:19 10° S visible
24 Oct - 22:55:29 10° SW 22:58:59 19° S 23:01:51 10° ESE night (unlit)
